Tracking 19969 objects as of 13-Nov-2019
Live streaming from Space Station
objects crossing your sky now
Track the group of recently launched Starlink satellites

COSMOS 1275 DEB

Track COSMOS 1275 DEB now!
10-day predictions


NORAD ID: 17638
Int'l Code: 1981-053LL
Perigee: 920.5 km
Apogee: 1,110.3 km
Inclination: 83.0 °
Period: 105.3 minutes
Semi major axis: 7386 km
RCS: 0.0172 m2 (small)
Launch date: June 4, 1981
Source: Commonwealth of Independent States (former USSR) (CIS)
Launch site: PLESETSK MISSILE AND SPACE COMPLEX (PKMTR)

Note: This is SATELLITE DEBRIS
aabbcc
Your satellite tracking list
Your tracking list is empty




NASA's NSSDC Master Catalog

Two Line Element Set (TLE):
1 17638U 81053LH  19317.07805937 -.00000040  00000-0 -62348-4 0  9995
2 17638  82.9934 244.6293 0128436  53.9348   5.0623 13.67584484715580
Source of the keplerian elements: AFSPC